{"data":{"norad_id":55377,"intl_designator":"2023-013AY","name":"STARLINK-5567","alt_names":[],"object_type":"PAYLOAD","status":"ACTIVE","operator":null,"country":"US","launch_date":"2023-01-26","launch_site_code":"AFETR","launch_vehicle":null,"mission":null,"orbit_class":"UNKNOWN","rcs_meters":null,"size_class":null,"mass_kg":null,"dimensions":null,"purposes":["comms"],"wikipedia_slug":null,"has_3d_model":false,"image_url":null,"decayed_at":null,"tle_current":{"epoch":"2026-09-20T10:21:53.355456Z","epoch_age_seconds":102570,"freshness":"FRESH","line1":"1 55377U 23013AY  26263.43186754  .00000333  00000+0  21639-4 0  9996","line2":"2 55377  43.0051 298.5503 0001874 277.0447  83.0191 15.27576758201283","mean_motion":15.27576758,"eccentricity":0.0001874,"inclination_deg":43.0051,"raan_deg":298.5503,"arg_perigee_deg":277.0447,"mean_anomaly_deg":83.0191,"bstar":2.1639e-5,"rev_number":20128,"period_min":94.266948777444,"perigee_km":481.7730156775,"apogee_km":484.34459186475,"semimajor_km":6861.1958037711,"source":"CELESTRAK","updated_at":"2026-09-21T09:00:33.210952Z"}}}